New York, NY

12:27 AM EST on November 17, 2019 (GMT -0500)
La Guardia

Weather History for KLGA - August, 2019

Change the Weather History Date:

Sunday, August 4, 2019

  Actual Average Record
Temperature  
Mean Temperature 80 °F 78 °F  
Max Temperature 88 °F 85 °F 99 °F (1944)
Min Temperature 71 °F 70 °F 62 °F (1964)
Degree Days  
Heating Degree Days 0 0  
Month to date heating degree days 0 0  
Since 1 June heating degree days 4 16  
Since 1 July heating degree days 0 0  
Cooling Degree Days 15 13  
Month to date cooling degree days 62 52  
Year to date cooling degree days 887 734  
Since 1 June cooling degree days 825 668  
Growing Degree Days 29 (Base 50)    
Moisture  
Dew Point 64 °F    
Average Humidity 63    
Maximum Humidity 90    
Minimum Humidity 36    
Precipitation  
Precipitation 0.00 in 0.15 in 2.78 in (2003)
Month to date precipitation 0.12 0.61  
Year to date precipitation 32.82 26.74  
Snow  
Snow 0.00 in 0.00 in - ()
Month to date snowfall 0.0 0.0  
Since 1 July snowfall 0.0 0.0  
Snow Depth 0.00 in    
Sea Level Pressure  
Sea Level Pressure 29.90 in    
Wind  
Wind Speed 6 mph (NE)    
Max Wind Speed 16 mph    
Max Gust Speed 23 mph    
Visibility 10 miles    
Events      
T = Trace of Precipitation, MM = Missing Value Source: NWS Daily Summary

Daily Weather History Graph

Daily Weather History Graph

Search for Another Location

Airport or City:

Astronomy

Aug. 04, 2019 Rise Set
Actual Time 5:54 AM EDT 8:07 PM EDT
Civil Twilight 5:24 AM EDT 8:38 PM EDT
Nautical Twilight 4:46 AM EDT 9:15 PM EDT
Astronomical Twilight 4:05 AM EDT 9:56 PM EDT
Moon 9:58 AM EDT (8/4) 10:44 PM EDT (8/4)
Length of Visible Light 15h 14m
Length of Day
14h 13m
Waxing Crescent, 18% of the Moon is Illuminated
Aug 4
Waxing Crescent
Aug 7
First Quarter
Aug 15
Full
Aug 23
Last Quarter
Aug 30
New

Hourly Weather History & Observations

Time (EDT) Temp. Heat Index Dew Point Humidity Pressure Visibility Wind Dir Wind Speed Gust Speed Precip Events Conditions
12:40 AM 72.0 °F - 64.9 °F 78% 29.95 in 10.0 mi Variable 4.6 mph - 0.05 in   Mostly Cloudy
12:51 AM 72.0 °F - 66.0 °F 81% 29.95 in 10.0 mi WNW 5.8 mph - 0.05 in   Mostly Cloudy
1:51 AM 73.9 °F - 68.0 °F 82% 29.91 in 10.0 mi SW 9.2 mph - N/A   Mostly Cloudy
2:51 AM 75.0 °F - 68.0 °F 79% 29.90 in 10.0 mi SW 5.8 mph - N/A   Scattered Clouds
3:51 AM 73.9 °F - 68.0 °F 82% 29.90 in 10.0 mi Calm Calm - N/A   Scattered Clouds
4:51 AM 72.0 °F - 68.0 °F 87% 29.89 in 10.0 mi NE 6.9 mph - N/A   Scattered Clouds
5:51 AM 71.1 °F - 68.0 °F 90% 29.91 in 10.0 mi East 5.8 mph - N/A   Mostly Cloudy
6:51 AM 72.0 °F - 68.0 °F 87% 29.91 in 10.0 mi ENE 3.5 mph - N/A   Mostly Cloudy
7:51 AM 73.0 °F - 68.0 °F 84% 29.92 in 10.0 mi ENE 4.6 mph - N/A   Scattered Clouds
8:51 AM 75.9 °F - 66.9 °F 74% 29.91 in 10.0 mi NNE 3.5 mph - N/A   Scattered Clouds
9:51 AM 79.0 °F - 66.9 °F 66% 29.92 in 10.0 mi ENE 6.9 mph - N/A   Scattered Clouds
10:51 AM 81.0 °F 82.5 °F 64.0 °F 56% 29.92 in 10.0 mi NE 4.6 mph - N/A   Mostly Cloudy
11:51 AM 82.9 °F 82.6 °F 57.9 °F 42% 29.91 in 10.0 mi East 9.2 mph - N/A   Mostly Cloudy
12:51 PM 84.0 °F 84.0 °F 60.1 °F 44% 29.90 in 10.0 mi NE 6.9 mph - N/A   Scattered Clouds
1:51 PM 84.9 °F 85.4 °F 62.1 °F 46% 29.89 in 10.0 mi NNE 4.6 mph - N/A   Scattered Clouds
2:51 PM 87.1 °F 86.1 °F 57.9 °F 37% 29.88 in 10.0 mi ENE 6.9 mph - N/A   Scattered Clouds
3:51 PM 86.0 °F 85.4 °F 59.0 °F 40% 29.86 in 10.0 mi NE 10.4 mph - N/A   Mostly Cloudy
4:51 PM 87.1 °F 86.5 °F 59.0 °F 39% 29.86 in 10.0 mi NE 10.4 mph - N/A   Overcast
5:51 PM 80.1 °F 81.2 °F 62.1 °F 54% 29.87 in 10.0 mi NE 10.4 mph - N/A   Mostly Cloudy
6:51 PM 82.0 °F 83.1 °F 63.0 °F 52% 29.87 in 10.0 mi NNE 4.6 mph - N/A   Mostly Cloudy
7:51 PM 82.0 °F 83.0 °F 62.1 °F 51% 29.88 in 10.0 mi NE 9.2 mph - N/A   Mostly Cloudy
8:51 PM 82.0 °F 83.1 °F 63.0 °F 52% 29.91 in 10.0 mi ENE 5.8 mph - N/A   Mostly Cloudy
9:51 PM 82.9 °F 83.3 °F 61.0 °F 47% 29.92 in 10.0 mi Variable 3.5 mph - N/A   Mostly Cloudy
10:51 PM 79.0 °F - 64.9 °F 62% 29.92 in 10.0 mi Calm Calm - N/A   Mostly Cloudy
11:51 PM 79.0 °F - 64.9 °F 62% 29.92 in 10.0 mi East 3.5 mph - N/A   Scattered Clouds